Home > Time Zones > World Clock > Weather > Belgium > Spa > Past weeks

Flag Weather past 2 weeks in Spa, Belgium

Now
42 °F

Fog.


Feels Like: 37 °F
Forecast: 36 / 48 °F
Wind: 8 mph from South

Location: Spa / La Sauveniere

Current Time: Nov 27, 2014 at 6:54:57 AM

Latest Report: Nov 27, 2014 at 6:00 AM


Visibility: 3 mi

Pressure: 29.81 "Hg

Humidity: 95%

Dew point: 41 °F

Location of SpaLocation

Historic Weather in Spa — Graph

°F

Spa temperature yesterday

Maximum temperature yesterday: 42 °F (at 2:00 PM)
Minimum temperature yesterday: 39 °F (at 12:00 AM)
Average temperature yesterday: 40 °F

Past Weeks' High & Low Weather Summary

 TemperatureHumidityPressure
High55 °F (Nov 23, 3:00 PM)100% (Nov 24, 7:00 AM)30.37 "Hg (Nov 24, 7:00 AM)
Low34 °F (Nov 24, 10:00 PM)70% (Nov 20, 1:00 PM)29.54 "Hg (Nov 16, 4:00 PM)
Average44 °F92%29.88 "Hg
* Reported Nov 12 5:00 AM — Nov 27 5:00 AM, Spa, Weather by CustomWeather, © 2014

Note: Actual official high and low records may vary slightly from our data, if they occured in-between our weather recording intervals... More about our weather records

Advertising

Spa weather history for previous 24 hours

 ConditionsComfort  
Time TempWeatherWind HumidityBarometerVisibility
5:00 AM
Nov 27
42 °FFog.7 mph97%29.83 "Hg2 mi
3:00 AM42 °FFog.8 mph96%29.85 "Hg3 mi
2:00 AM41 °FFog.8 mph96%29.86 "Hg2 mi
1:00 AM41 °FFog.7 mph97%29.88 "Hg2 mi
12:00 AM41 °FFog.7 mph97%29.90 "Hg2 mi
11:00 PM
Nov 26
41 °FFog.8 mph97%29.90 "Hg2 mi
10:00 PM41 °FFog.6 mph97%29.91 "Hg1 mi
9:00 PM41 °FFog.7 mph97%29.91 "Hg1 mi
8:00 PM41 °FFog.6 mph97%29.92 "Hg1 mi
7:00 PM41 °FFog.7 mph97%29.92 "Hg1 mi
6:00 PM41 °FFog.6 mph96%29.91 "Hg1 mi
5:00 PM42 °FFog.7 mph96%29.91 "Hg2 mi
4:00 PM42 °FFog.8 mph95%29.92 "Hg2 mi
3:00 PM41 °FFog.9 mph94%29.92 "Hg2 mi
2:00 PM42 °FFog.8 mph94%29.93 "Hg2 mi
1:00 PM41 °FFog.10 mph94%29.94 "Hg2 mi
12:00 PM40 °FLight rain. Overcast.12 mph95%29.96 "Hg2 mi
11:00 AM40 °FPassing clouds.12 mph94%29.97 "Hg2 mi
10:00 AM40 °FFog.10 mph92%29.97 "Hg3 mi
9:00 AM40 °FFog.10 mphN/AN/A2 mi
8:00 AM40 °FFog.10 mphN/AN/A2 mi
7:00 AMN/AFog.10 mphN/AN/A2 mi
6:00 AM40 °FFog.9 mphN/AN/A2 mi
Weather by CustomWeather, © 2014

See weather overviewHow to use our weather pages